Tracking 20719 objects as of 26-May-2020
HD Live streaming from Space Station
objects crossing your sky now

ANIK E2

Track ANIK E2 now!
ANIK E2 is classified as:


NORAD ID: 21222
Int'l Code: 1991-026A
Perigee: 36,063.3 km
Apogee: 36,172.6 km
Inclination: 12.3 °
Period: 1,452.7 minutes
Semi major axis: 42488 km
RCS: 12.1056 m2 (large)
Launch date: April 4, 1991
Source: Canada (CA)
Launch site: FRENCH GUIANA (FRGUI)

Inclined orbit; Anik is Inuit for "Little Brother"; 24 C-band, 16 Ku-band transponders.
aabbcc
Your satellite tracking list
Your tracking list is empty




NASA's NSSDC Master Catalog

Two Line Element Set (TLE):
1 21222U 91026A   20144.71576966 +.00000061 +00000-0 +00000-0 0  9992
2 21222 012.3299 027.9460 0012866 353.7699 187.4852 00.99126222095158
Source of the keplerian elements: AFSPC